Terminal Aerodrome Forecast
Issued by NWS

Home | Current Version | Previous Version | Text Only | Print | Product List | Glossary On
Versions: 1 2 3 4 5 6 7 8 9 10 11 12 13 14 15 16 17 18 19 20 21 22 23 24 25 26 27 28 29 30 31 32 33 34 35 36 37 38 39 40 41 42 43 44 45 46 47 48 49 50
000
FTUS41 KCTP 041415 AAE
TAFAOO
TAF AMD
KAOO 041415Z 0414/0512 05004KT 1 1/2SM -RA BR BKN005 OVC010
     FM041700 03003KT 6SM HZ VCSH OVC025
     FM042100 02003KT 5SM HZ BKN035
     FM050400 00000KT 3SM BR SCT040
     FM050800 00000KT 1SM BR SCT002=

USA.gov is the U.S. government's official web portal to all federal, state and local government web resources and services.